IS0GQX-3 Weather Reports


Display with metric or nautical units.
time (UTC)temp
F
wind
direction
speed
MPH
gust
MPH
rain 1hr
in
rain 24hr
in
rain mn
in
humidity
%
barometer
mb
20260504080908 83 0.0 0.0 0.00 0.00 0.00 1017.8
20260504044904 74 0.0 0.0 0.00 0.00 0.00 1018.1
20260504042904 74 0.0 0.0 0.00 0.00 0.00 1018.1
20260504040904 73 0.0 0.0 0.00 0.00 0.00 1018.1
20260504034903 73 0.0 0.0 0.00 0.00 0.00 1017.9
20260504032903 72 0.0 0.0 0.00 0.00 0.00 1017.6
20260504030903 72 0.0 0.0 0.00 0.00 0.00 1017.9
20260504024903 71 0.0 0.0 0.00 0.00 0.00 1018.4
20260504022902 71 0.0 0.0 0.00 0.00 0.00 1018.4
20260504020902 70 0.0 0.0 0.00 0.00 0.00 1018.4
20260504014902 70 0.0 0.0 0.00 0.00 0.00 1018.3
20260504012901 70 0.0 0.0 0.00 0.00 0.00 1018.3
20260504010901 71 0.0 0.0 0.00 0.00 0.00 1018.5
20260504004901 72 0.0 0.0 0.00 0.00 2.80 1018.9
20260504002900 73 0.0 0.0 0.00 0.00 2.80 1019.4
20260504000900 74 0.0 0.0 0.00 0.00 2.80 1019.4
20260503234900 74 0.0 0.0 0.00 0.00 2.80 1019.6
20260503232900 73 0.0 0.0 0.00 0.00 2.80 1019.5
20260503230859 74 0.0 0.0 0.00 0.00 2.80 1019.2
20260503224859 74 0.0 0.0 0.00 0.00 2.80 1020.6
20260503222859 73 0.0 0.0 0.00 0.00 2.80 1020.5
20260503220858 72 0.0 0.0 0.00 0.00 2.80 1020.1
20260503220315 73 0.0 0.0 0.00 0.00 0.00 1019.7
20260503214311 73 0.0 0.0 0.00 0.00 0.00 1019.2
20260503212306 72 0.0 0.0 0.00 0.00 0.00 1019.9
20260503210302 73 0.0 0.0 0.00 0.00 0.00 1019.5
20260503204258 73 0.0 0.0 0.00 0.00 0.00 1019.7
20260503202254 73 0.0 0.0 0.00 0.00 0.00 1019.8
20260503200250 74 0.0 0.0 0.00 0.00 0.00 1019.9
20260503194246 74 0.0 0.0 0.00 0.00 0.00 1019.9
20260503192243 74 0.0 0.0 0.00 0.00 0.00 1019.7
20260503190239 75 0.0 0.0 0.00 0.00 0.00 1019.4
20260503184235 76 0.0 0.0 0.00 0.00 0.00 1019.0
20260503182231 76 0.0 0.0 0.00 0.00 0.00 1018.8
20260503180227 77 0.0 0.0 0.00 0.00 0.00 1018.7
20260503174223 78 0.0 0.0 0.00 0.00 0.00 1018.6
20260503172219 79 0.0 0.0 0.00 0.00 0.00 1018.8
20260503170215 80 0.0 0.0 0.00 0.00 0.00 1018.9
20260503160204 85 0.0 0.0 0.00 0.00 0.00 1018.8
20260503150152 86 0.0 0.0 0.00 0.00 0.00 1019.0
20260503140140 82 0.0 0.0 0.00 0.00 0.00 1019.8
20260503130128 84 0.0 0.0 0.00 0.00 0.00 1020.3
20260503120117 82 0.0 0.0 0.00 0.00 0.00 1020.8
20260503110105 83 0.0 0.0 0.00 0.00 0.00 1021.2